Weather History for KPQL - December, 2012

Change the Weather History Date:

Friday, December 7, 2012

  Actual Average Record
Temperature  
Mean Temperature 63 °F -  
Max Temperature 75 °F 64 °F 79 °F (1998)
Min Temperature 51 °F 43 °F 26 °F (1984)
Degree Days  
Heating Degree Days 2    
Growing Degree Days 13 (Base 50)    
Moisture  
Dew Point 61 °F    
Average Humidity 89    
Maximum Humidity 100    
Minimum Humidity 69    
Precipitation  
Precipitation 0.00 in - - ()
Sea Level Pressure  
Sea Level Pressure 29.95 in    
Wind  
Wind Speed 3 mph (East)    
Max Wind Speed 12 mph    
Max Gust Speed -    
Visibility 6 miles    
Events Fog    
Averages and records for this station are not official NWS values.
T = Trace of Precipitation, MM = Missing Value Source: NWS Daily Summary

Daily Weather History Graph

Daily Weather History Graph

Search for Another Location

Airport or City:

Trip Planner

Search our weather history database for the weather conditions in past years. The results will help you decide how hot, cold, wet, or windy it might be!

Date:

Astronomy

Dec. 07, 2012 Rise Set
Actual Time 6:38 AM CST 4:53 PM CST
Civil Twilight 6:12 AM CST 5:19 PM CST
Nautical Twilight 5:42 AM CST 5:49 PM CST
Astronomical Twilight 5:12 AM CST 6:18 PM CST
Moon 12:20 AM CST (12/7) 12:29 PM CST (12/7)
Length of Visible Light 11h 07m
Length of Day
10h 14m
Last Quarter, 38% of the Moon is Illuminated
Dec 7
Last Quarter
Dec 13
New
Dec 19
First Quarter
Dec 28
Full
Jan 4
Last Quarter

Hourly Weather History & Observations

Time (CST) Temp. Dew Point Humidity Pressure Visibility Wind Dir Wind Speed Gust Speed Precip Events Conditions
12:01 AM 51.8 °F 51.8 °F 100% 29.97 in 0.2 mi Calm Calm - N/A Fog Fog
12:53 AM 53.1 °F 52.0 °F 96% 29.97 in 0.2 mi Calm Calm - N/A Fog Fog
1:08 AM 53.6 °F 51.8 °F 94% 29.96 in 1.0 mi Calm Calm - N/A   Mist
1:25 AM 51.8 °F 51.8 °F 100% 29.96 in 0.2 mi Calm Calm - N/A Fog Fog
1:53 AM 53.1 °F 52.0 °F 96% 29.96 in 0.2 mi Calm Calm - N/A Fog Fog
2:53 AM 52.0 °F 51.1 °F 97% 29.95 in 0.2 mi Calm Calm - N/A Fog Fog
3:45 AM 57.2 °F 55.4 °F 94% 29.95 in 0.5 mi NE 3.5 mph - N/A Fog Fog
3:53 AM 57.9 °F 57.0 °F 97% 29.95 in 0.5 mi Calm Calm - N/A Fog Fog
4:02 AM 57.2 °F 57.2 °F 100% 29.95 in 0.2 mi NE 3.5 mph - N/A Fog Fog
4:53 AM 59.0 °F 57.9 °F 96% 29.96 in 0.2 mi Calm Calm - N/A Fog Fog
5:53 AM 59.0 °F 57.9 °F 96% 29.97 in 0.2 mi Calm Calm - N/A Fog Fog
6:23 AM 59.0 °F 57.2 °F 94% 29.98 in 0.8 mi ENE 3.5 mph - N/A   Mist
6:29 AM 59.0 °F 57.2 °F 94% 29.98 in 2.0 mi Calm Calm - N/A   Mostly Cloudy
6:39 AM 59.0 °F 57.2 °F 94% 29.98 in 3.0 mi Calm Calm - N/A   Mostly Cloudy
6:53 AM 59.0 °F 57.9 °F 96% 29.99 in 3.0 mi Calm Calm - N/A   Mostly Cloudy
7:00 AM 59.0 °F 57.2 °F 94% 29.98 in 3.0 mi East 3.5 mph - N/A   Mostly Cloudy
7:53 AM 61.0 °F 60.1 °F 97% 29.99 in 5.0 mi East 3.5 mph - N/A   Overcast
8:12 AM 62.6 °F 60.8 °F 94% 29.99 in 6.0 mi East 4.6 mph - N/A   Overcast
8:32 AM 62.6 °F 62.6 °F 100% 29.98 in 2.0 mi East 5.8 mph - N/A   Overcast
8:39 AM 62.6 °F 62.6 °F 100% 29.99 in 1.5 mi East 5.8 mph - N/A   Overcast
8:53 AM 64.0 °F 63.0 °F 96% 30.00 in 2.5 mi East 5.8 mph - N/A   Overcast
9:01 AM 64.4 °F 62.6 °F 94% 29.99 in 4.0 mi East 5.8 mph - N/A   Overcast
9:53 AM 66.0 °F 63.0 °F 90% 29.99 in 6.0 mi East 8.1 mph - N/A   Overcast
10:24 AM 66.2 °F 64.4 °F 94% 29.99 in 7.0 mi ENE 6.9 mph - N/A   Overcast
10:53 AM 68.0 °F 64.0 °F 87% 29.99 in 7.0 mi NNE 5.8 mph - N/A   Overcast
11:27 AM 69.8 °F 64.4 °F 83% 29.97 in 10.0 mi ENE 3.5 mph - N/A   Overcast
11:50 AM 69.8 °F 62.6 °F 78% 29.96 in 10.0 mi East 4.6 mph - N/A   Mostly Cloudy
11:53 AM 70.0 °F 64.0 °F 81% 29.96 in 10.0 mi ENE 3.5 mph - N/A   Mostly Cloudy
12:15 PM 71.6 °F 64.4 °F 78% 29.95 in 10.0 mi Calm Calm - N/A   Mostly Cloudy
12:35 PM 71.6 °F 64.4 °F 78% 29.94 in 10.0 mi Variable 3.5 mph - N/A   Mostly Cloudy
12:53 PM 73.0 °F 64.0 °F 73% 29.94 in 10.0 mi Calm Calm - N/A   Overcast
1:27 PM 73.4 °F 64.4 °F 73% 29.92 in 10.0 mi SE 6.9 mph - N/A   Overcast
1:53 PM 75.0 °F 64.0 °F 69% 29.91 in 10.0 mi SSE 10.4 mph - N/A   Scattered Clouds
2:17 PM 75.2 °F 64.4 °F 69% 29.91 in 10.0 mi SE 11.5 mph - N/A   Mostly Cloudy
2:43 PM 73.4 °F 64.4 °F 73% 29.91 in 10.0 mi SE 8.1 mph - N/A   Mostly Cloudy
2:53 PM 73.9 °F 64.9 °F 73% 29.91 in 10.0 mi SSE 8.1 mph - N/A   Mostly Cloudy
3:18 PM 73.4 °F 64.4 °F 73% 29.91 in 10.0 mi SE 6.9 mph - N/A   Mostly Cloudy
3:50 PM 71.6 °F 64.4 °F 78% 29.92 in 10.0 mi ESE 8.1 mph - N/A   Scattered Clouds
3:53 PM 72.0 °F 64.0 °F 76% 29.92 in 10.0 mi SE 6.9 mph - N/A   Scattered Clouds
4:19 PM 71.6 °F 64.4 °F 78% 29.92 in 10.0 mi ESE 6.9 mph - N/A   Mostly Cloudy
4:39 PM 69.8 °F 64.4 °F 83% 29.92 in 10.0 mi East 9.2 mph - N/A   Scattered Clouds
4:53 PM 69.1 °F 64.0 °F 84% 29.93 in 10.0 mi ESE 8.1 mph - N/A   Partly Cloudy
5:05 PM 69.8 °F 64.4 °F 83% 29.92 in 10.0 mi ESE 6.9 mph - N/A   Mostly Cloudy
5:20 PM 68.0 °F 64.4 °F 88% 29.92 in 10.0 mi East 4.6 mph - N/A   Mostly Cloudy
5:32 PM 68.0 °F 64.4 °F 88% 29.92 in 10.0 mi East 5.8 mph - N/A   Scattered Clouds
5:53 PM 66.9 °F 64.0 °F 90% 29.93 in 10.0 mi East 3.5 mph - N/A   Mostly Cloudy
6:34 PM 66.2 °F 62.6 °F 88% 29.94 in 10.0 mi East 3.5 mph - N/A   Mostly Cloudy
7:53 PM 64.9 °F 63.0 °F 93% 29.95 in 7.0 mi East 3.5 mph - N/A   Partly Cloudy
8:46 PM 64.4 °F 62.6 °F 94% 29.95 in 4.0 mi Calm Calm - N/A   Mostly Cloudy
8:53 PM 64.0 °F 62.1 °F 93% 29.96 in 3.0 mi Calm Calm - N/A   Mostly Cloudy
9:53 PM 64.0 °F 62.1 °F 93% 29.96 in 5.0 mi Calm Calm - N/A   Overcast
10:53 PM 66.0 °F 64.0 °F 93% 29.96 in 7.0 mi Calm Calm - N/A   Overcast
11:16 PM 66.2 °F 64.4 °F 94% 29.95 in 6.0 mi Calm Calm - N/A   Overcast
11:27 PM 66.2 °F 64.4 °F 94% 29.95 in 7.0 mi Calm Calm - N/A   Overcast
11:53 PM 66.0 °F 64.9 °F 96% 29.95 in 7.0 mi Calm Calm - N/A   Overcast